YAOGAN-30 R

导读 | 豆包AI

YAOGAN-30 R(遥感三十号R卫星)是中国于北京时间2020年3月24日在西昌卫星发射中心,由长征二号丙运载火箭以“一箭三星”方式送入预定轨道的遥感卫星,属于遥感三十号卫星组网工程。该卫星主要用于开展电磁环境探测及相关科学实验,同时可服务于土地勘测、农业监测和灾害应急响应等领域,进一步完善了我国遥感卫星组网性能,任务圆满成功,也是中科院微小卫星创新研究院2020年度首发卫星任务。

Basic Information
目录编号:
45460
目录名称:
YAOGAN-30 R
国际标识:
2020-021A
轨道中心:
EARTH
卫星名称:
YAOGAN-30 R
卫星全名:
--
卫星状态:
在轨 (已飞行2228 天)
发射日期:
2020-03-24 UTC
国别 :
中国 (CN)
星等 :
--
Orbit Information
数据来源 国际轨道数据 AOE轨道数据
星历时间 2026-04-30T20:35:39+0800
7小时前
查看轨道信息
2026-04-27T08:00:00+0800
3天前
查看轨道信息
半长轴 6937.405km 6937.478km
偏心率 0.0004044 0.0004295
轨道倾角 34.994° 34.994°
近地点辐角 315.552° 287.813°
升交点赤经 141.336° 162.811°
平近点角 44.486° 56.355°
近地点 556.462km 556.361km
远地点 562.074km 562.321km
周期 95.842分钟 95.843分钟
每日圈数 15.02475 15.024513
Detailed Information
使用方式:
暂无
2D Orbit Map
3D Orbit Map
Orbit Altitude Analysis Chart
Orbit Inclination Analysis Chart
Orbit Comprehensive Analysis Chart
View Comprehensive Chart